SQP330 LUKK-EYVI

Flight info

Callsign SQP330
Flight time 1h 46m
Altitude 34000
Route UNIRA DCT KARIL DCT KENIN DCT GAWOR L71 BOKSU DCT IRKAL
Aircraft B738/M-SDE2E3FGHIRWXY/LB1

Departure

Time 2026-05-07 12:46
Airport Chişinău International Airport (LUKK)

Arrival

Time 2026-05-07 14:32
Airport Vilnius International Airport (EYVI)
Time Latitude Longitude Altitude Speed Heading
2026-05-07 12:17 46.93275 28.93549 407 ft 0 kts 277°
2026-05-07 12:37 46.93275 28.93547 407 ft 0 kts 277°
2026-05-07 12:37 46.93276 28.93536 407 ft 2 kts 277°
2026-05-07 12:37 46.93279 28.93500 407 ft 5 kts 276°
2026-05-07 12:38 46.93257 28.93465 405 ft 6 kts 197°
2026-05-07 12:38 46.93216 28.93455 406 ft 6 kts 188°
2026-05-07 12:38 46.93172 28.93451 408 ft 6 kts 172°
2026-05-07 12:38 46.93145 28.93504 410 ft 7 kts 102°
2026-05-07 12:39 46.93138 28.93589 407 ft 10 kts 97°
2026-05-07 12:39 46.93128 28.93705 407 ft 13 kts 97°
2026-05-07 12:39 46.93116 28.93845 406 ft 14 kts 97°
2026-05-07 12:39 46.93105 28.93986 406 ft 14 kts 97°
2026-05-07 12:40 46.93093 28.94122 405 ft 14 kts 98°
2026-05-07 12:40 46.93081 28.94261 404 ft 14 kts 97°
2026-05-07 12:40 46.93069 28.94399 405 ft 13 kts 97°
2026-05-07 12:40 46.93058 28.94529 406 ft 13 kts 97°
2026-05-07 12:41 46.93047 28.94665 407 ft 14 kts 97°
2026-05-07 12:41 46.93034 28.94811 408 ft 14 kts 97°
2026-05-07 12:41 46.93022 28.94951 407 ft 14 kts 97°
2026-05-07 12:41 46.93007 28.95092 407 ft 14 kts 119°
2026-05-07 12:42 46.92971 28.95112 409 ft 5 kts 177°
2026-05-07 12:42 46.92965 28.95112 409 ft 0 kts 177°
2026-05-07 12:42 46.92957 28.95113 409 ft 3 kts 178°
2026-05-07 12:43 46.92926 28.95114 408 ft 6 kts 178°
2026-05-07 12:43 46.92880 28.95116 408 ft 8 kts 178°
2026-05-07 12:43 46.92829 28.95092 408 ft 8 kts 224°
2026-05-07 12:43 46.92819 28.95013 408 ft 8 kts 269°
2026-05-07 12:44 46.92819 28.95009 408 ft 0 kts 269°
2026-05-07 12:44 46.92819 28.95008 408 ft 0 kts 269°
2026-05-07 12:44 46.92819 28.94995 408 ft 2 kts 268°
2026-05-07 12:44 46.92818 28.94961 408 ft 4 kts 268°
2026-05-07 12:45 46.92817 28.94946 408 ft 0 kts 268°
2026-05-07 12:45 46.92816 28.94887 408 ft 31 kts 268°
2026-05-07 12:45 46.92801 28.94145 407 ft 113 kts 269°
2026-05-07 12:46 46.92748 28.92656 426 ft 177 kts 259°
2026-05-07 12:46 46.92783 28.90714 1146 ft 194 kts 270°
2026-05-07 12:46 46.92764 28.88775 2231 ft 195 kts 263°
2026-05-07 12:46 46.92693 28.86674 2670 ft 221 kts 263°
2026-05-07 12:47 46.92616 28.84272 2914 ft 251 kts 262°
2026-05-07 12:47 46.92549 28.81643 3545 ft 262 kts 265°
2026-05-07 12:47 46.92489 28.78948 4388 ft 265 kts 263°
2026-05-07 12:47 46.92430 28.76292 5312 ft 266 kts 263°
2026-05-07 12:48 46.92369 28.73550 6077 ft 272 kts 266°
2026-05-07 12:48 46.92447 28.70750 6816 ft 280 kts 284°
2026-05-07 12:48 46.93144 28.68078 7637 ft 283 kts 291°
2026-05-07 12:48 46.93925 28.65425 8471 ft 284 kts 292°
2026-05-07 12:49 46.94713 28.62759 9319 ft 286 kts 292°
2026-05-07 12:49 46.95505 28.60066 10118 ft 289 kts 292°
2026-05-07 12:49 46.96313 28.57302 10581 ft 305 kts 292°
2026-05-07 12:49 46.97177 28.54328 10754 ft 329 kts 292°
2026-05-07 12:50 46.98101 28.51129 10922 ft 351 kts 292°
2026-05-07 12:50 46.99077 28.47741 11122 ft 371 kts 291°
2026-05-07 12:50 47.00091 28.44206 11601 ft 380 kts 292°
2026-05-07 12:50 47.01107 28.40666 12289 ft 382 kts 291°
2026-05-07 12:51 47.02138 28.37068 13002 ft 385 kts 291°
2026-05-07 12:51 47.03175 28.33438 13656 ft 388 kts 291°
2026-05-07 12:51 47.04221 28.29766 14241 ft 393 kts 291°
2026-05-07 12:51 47.05279 28.26051 14835 ft 396 kts 291°
2026-05-07 12:52 47.05982 28.23579 15232 ft 398 kts 291°
2026-05-07 12:52 47.07415 28.18534 16037 ft 401 kts 291°
2026-05-07 12:52 47.08127 28.16023 16427 ft 404 kts 290°
2026-05-07 12:52 47.09208 28.12202 17009 ft 407 kts 291°
2026-05-07 12:53 47.10295 28.08349 17532 ft 411 kts 291°
2026-05-07 12:53 47.11395 28.04450 18070 ft 415 kts 290°
2026-05-07 12:53 47.12502 28.00518 18590 ft 418 kts 290°
2026-05-07 12:53 47.13614 27.96565 19106 ft 420 kts 291°
2026-05-07 12:54 47.14730 27.92595 19605 ft 422 kts 290°
2026-05-07 12:54 47.15849 27.88603 20109 ft 424 kts 291°
2026-05-07 12:54 47.16937 27.84620 20589 ft 426 kts 288°
2026-05-07 12:54 47.17716 27.80420 21092 ft 425 kts 281°
2026-05-07 12:55 47.18310 27.76164 21648 ft 425 kts 280°
2026-05-07 12:55 47.18845 27.71914 22369 ft 420 kts 279°
2026-05-07 12:55 47.19373 27.67652 22682 ft 427 kts 279°
2026-05-07 12:55 47.19918 27.63350 23137 ft 428 kts 280°
2026-05-07 12:56 47.20483 27.59016 23407 ft 435 kts 280°
2026-05-07 12:56 47.21067 27.54649 23869 ft 434 kts 281°
2026-05-07 12:56 47.21658 27.50288 24369 ft 433 kts 281°
2026-05-07 12:56 47.22251 27.45947 24835 ft 432 kts 281°
2026-05-07 12:57 47.22848 27.41584 25055 ft 438 kts 281°
2026-05-07 12:57 47.23448 27.37198 25409 ft 439 kts 281°
2026-05-07 12:57 47.24055 27.32742 25506 ft 447 kts 281°
2026-05-07 12:57 47.24665 27.28256 25886 ft 447 kts 281°
2026-05-07 12:58 47.25271 27.23777 26386 ft 444 kts 281°
2026-05-07 12:58 47.25865 27.19375 26739 ft 445 kts 281°
2026-05-07 12:58 47.26469 27.14886 27072 ft 446 kts 281°
2026-05-07 12:58 47.27072 27.10389 27290 ft 450 kts 281°
2026-05-07 12:59 47.27680 27.05835 27526 ft 453 kts 281°
2026-05-07 12:59 47.28286 27.01287 27929 ft 451 kts 281°
2026-05-07 12:59 47.28883 26.96785 28522 ft 446 kts 281°
2026-05-07 12:59 47.29479 26.92285 28812 ft 448 kts 281°
2026-05-07 13:00 47.30072 26.87784 29150 ft 449 kts 281°
2026-05-07 13:00 47.30666 26.83262 29499 ft 448 kts 281°
2026-05-07 13:00 47.31252 26.78787 30099 ft 443 kts 281°
2026-05-07 13:00 47.31833 26.74334 30486 ft 441 kts 281°
2026-05-07 13:01 47.32411 26.69896 30784 ft 442 kts 281°
2026-05-07 13:01 47.32990 26.65441 31055 ft 442 kts 281°
2026-05-07 13:01 47.33566 26.60989 31312 ft 443 kts 280°
2026-05-07 13:01 47.34139 26.56548 31782 ft 438 kts 280°
2026-05-07 13:02 47.34704 26.52148 32190 ft 436 kts 280°
2026-05-07 13:02 47.35266 26.47763 32497 ft 435 kts 280°
2026-05-07 13:02 47.35819 26.43433 32795 ft 435 kts 280°
2026-05-07 13:02 47.36376 26.39060 33145 ft 433 kts 280°
2026-05-07 13:03 47.36929 26.34702 33521 ft 430 kts 280°
2026-05-07 13:03 47.37477 26.30371 33871 ft 429 kts 280°
2026-05-07 13:03 47.38571 26.21682 33991 ft 432 kts 280°
2026-05-07 13:04 47.39658 26.12993 33974 ft 427 kts 280°
2026-05-07 13:04 47.40726 26.04402 33982 ft 424 kts 280°
2026-05-07 13:05 47.41783 25.95846 33987 ft 423 kts 280°
2026-05-07 13:05 47.42833 25.87287 33975 ft 423 kts 280°
2026-05-07 13:06 47.43868 25.78791 33990 ft 423 kts 279°
2026-05-07 13:06 47.44905 25.70235 33991 ft 423 kts 279°
2026-05-07 13:07 47.45936 25.61669 33993 ft 424 kts 279°
2026-05-07 13:07 47.46962 25.53079 34005 ft 425 kts 279°
2026-05-07 13:08 47.47987 25.44457 33989 ft 425 kts 279°
2026-05-07 13:08 47.49005 25.35824 33990 ft 427 kts 279°
2026-05-07 13:09 47.50012 25.27225 34003 ft 427 kts 279°
2026-05-07 13:09 47.51021 25.18553 33992 ft 428 kts 279°
2026-05-07 13:10 47.52024 25.09878 34002 ft 428 kts 279°
2026-05-07 13:10 47.53020 25.01194 34006 ft 428 kts 279°
2026-05-07 13:11 47.54012 24.92498 34014 ft 428 kts 278°
2026-05-07 13:11 47.54990 24.83855 34000 ft 428 kts 278°
2026-05-07 13:12 47.55965 24.75172 34000 ft 427 kts 278°
2026-05-07 13:12 47.56933 24.66502 34008 ft 426 kts 278°
2026-05-07 13:13 47.57891 24.57856 34013 ft 425 kts 278°
2026-05-07 13:13 47.58843 24.49200 34001 ft 425 kts 278°
2026-05-07 13:14 47.59788 24.40548 34003 ft 425 kts 278°
2026-05-07 13:14 47.60725 24.31901 34013 ft 425 kts 278°
2026-05-07 13:15 47.61657 24.23235 33998 ft 426 kts 277°
2026-05-07 13:15 47.62578 24.14620 34016 ft 426 kts 277°
2026-05-07 13:16 47.63499 24.05933 33994 ft 427 kts 277°
2026-05-07 13:16 47.64414 23.97239 34008 ft 426 kts 277°
2026-05-07 13:17 47.65322 23.88549 34012 ft 426 kts 276°
2026-05-07 13:17 47.66223 23.79860 34010 ft 426 kts 276°
2026-05-07 13:18 47.67116 23.71181 34025 ft 425 kts 276°
2026-05-07 13:18 47.68003 23.62496 34032 ft 426 kts 276°
2026-05-07 13:19 47.68884 23.53802 34026 ft 426 kts 275°
2026-05-07 13:19 47.69751 23.45167 34024 ft 425 kts 275°
2026-05-07 13:20 47.70618 23.36481 34014 ft 426 kts 275°
2026-05-07 13:20 47.71479 23.27771 34011 ft 426 kts 275°
2026-05-07 13:21 47.72334 23.19064 34024 ft 426 kts 275°
2026-05-07 13:21 47.73183 23.10341 34019 ft 426 kts 275°
2026-05-07 13:22 47.74026 23.01614 34013 ft 427 kts 275°
2026-05-07 13:22 47.74863 22.92880 34024 ft 427 kts 275°
2026-05-07 13:23 47.75688 22.84198 34030 ft 428 kts 274°
2026-05-07 13:23 47.76513 22.75432 34026 ft 428 kts 274°
2026-05-07 13:24 47.77332 22.66666 34021 ft 428 kts 274°
2026-05-07 13:24 47.78146 22.57893 34030 ft 429 kts 274°
2026-05-07 13:25 47.79104 22.49104 33989 ft 437 kts 285°
2026-05-07 13:25 47.80451 22.45095 34041 ft 446 kts 299°
2026-05-07 13:25 47.82486 22.41536 33989 ft 458 kts 314°
2026-05-07 13:26 47.87871 22.36287 34005 ft 464 kts 324°
2026-05-07 13:26 47.93454 22.31460 33991 ft 463 kts 324°
2026-05-07 13:27 47.98995 22.26576 33984 ft 461 kts 323°
2026-05-07 13:27 48.04450 22.21663 34015 ft 460 kts 323°
2026-05-07 13:28 48.09919 22.16700 33999 ft 459 kts 323°
2026-05-07 13:28 48.15381 22.11732 33984 ft 459 kts 323°
2026-05-07 13:29 48.20843 22.06757 33978 ft 459 kts 323°
2026-05-07 13:29 48.26308 22.01768 33975 ft 459 kts 323°
2026-05-07 13:30 48.31769 21.96770 34002 ft 460 kts 324°
2026-05-07 13:30 48.34678 21.94693 33949 ft 470 kts 339°
2026-05-07 13:30 48.37936 21.93951 33981 ft 480 kts 356°
2026-05-07 13:31 48.41261 21.94627 33968 ft 488 kts 13°
2026-05-07 13:31 48.44506 21.96136 33979 ft 489 kts 14°
2026-05-07 13:31 48.50995 21.99234 33971 ft 490 kts 14°
2026-05-07 13:32 48.57477 22.02238 33967 ft 490 kts 14°
2026-05-07 13:32 48.64002 22.05192 33968 ft 490 kts 14°
2026-05-07 13:33 48.70535 22.08139 33969 ft 489 kts 14°
2026-05-07 13:33 48.77055 22.11092 33981 ft 489 kts 14°
2026-05-07 13:34 48.86828 22.15540 33974 ft 489 kts 14°
2026-05-07 13:35 48.93341 22.18515 33983 ft 488 kts 14°
2026-05-07 13:35 48.99848 22.21497 33976 ft 488 kts 14°
2026-05-07 13:36 49.06341 22.24479 33982 ft 487 kts 14°
2026-05-07 13:36 49.12828 22.27457 33978 ft 486 kts 12°
2026-05-07 13:37 49.19438 22.29050 33970 ft 479 kts
2026-05-07 13:37 49.26046 22.29835 33972 ft 478 kts
2026-05-07 13:38 49.32689 22.30627 33970 ft 479 kts
2026-05-07 13:38 49.39334 22.31489 33975 ft 480 kts
2026-05-07 13:39 49.45988 22.32391 33960 ft 480 kts
2026-05-07 13:39 49.51517 22.33149 33960 ft 480 kts
2026-05-07 13:40 49.58185 22.34064 33946 ft 481 kts
2026-05-07 13:40 49.64856 22.34980 33952 ft 481 kts
2026-05-07 13:41 49.71523 22.35896 33933 ft 481 kts
2026-05-07 13:41 49.78201 22.36816 33940 ft 481 kts
2026-05-07 13:42 49.84873 22.37738 33938 ft 481 kts
2026-05-07 13:42 49.91535 22.38661 33931 ft 481 kts
2026-05-07 13:43 49.98201 22.39587 33944 ft 481 kts
2026-05-07 13:43 50.04863 22.40515 33928 ft 481 kts
2026-05-07 13:44 50.11500 22.41443 33922 ft 481 kts
2026-05-07 13:44 50.18172 22.42378 33920 ft 481 kts
2026-05-07 13:45 50.24854 22.43317 33926 ft 481 kts
2026-05-07 13:45 50.31535 22.44258 33924 ft 481 kts
2026-05-07 13:46 50.38163 22.45195 33929 ft 481 kts
2026-05-07 13:46 50.44833 22.46140 33922 ft 481 kts
2026-05-07 13:47 50.51504 22.47088 33924 ft 481 kts
2026-05-07 13:47 50.58170 22.48038 33925 ft 481 kts
2026-05-07 13:48 50.64833 22.48990 33920 ft 481 kts
2026-05-07 13:48 50.71512 22.49948 33926 ft 481 kts
2026-05-07 13:49 50.78187 22.50907 33920 ft 482 kts
2026-05-07 13:49 50.84844 22.51865 33918 ft 484 kts
2026-05-07 13:50 50.91572 22.52838 33917 ft 485 kts
2026-05-07 13:50 50.98309 22.53815 33912 ft 486 kts
2026-05-07 13:51 51.05056 22.54796 33916 ft 487 kts
2026-05-07 13:51 51.11832 22.55784 33911 ft 489 kts
2026-05-07 13:52 51.18605 22.56775 33911 ft 489 kts
2026-05-07 13:52 51.25348 22.57765 33912 ft 489 kts
2026-05-07 13:53 51.32136 22.58764 33907 ft 490 kts
2026-05-07 13:53 51.38933 22.59767 33895 ft 489 kts
2026-05-07 13:54 51.45715 22.60771 33906 ft 490 kts
2026-05-07 13:54 51.52411 22.61764 33910 ft 490 kts
2026-05-07 13:55 51.59276 22.62787 33894 ft 491 kts
2026-05-07 13:55 51.66084 22.63803 33897 ft 491 kts
2026-05-07 13:56 51.72901 22.64825 33895 ft 492 kts
2026-05-07 13:56 51.79718 22.65849 33916 ft 492 kts
2026-05-07 13:57 51.86544 22.66878 33893 ft 492 kts
2026-05-07 13:57 51.93369 22.67910 33888 ft 492 kts
2026-05-07 13:58 52.00144 22.68937 33892 ft 492 kts
2026-05-07 13:58 52.06955 22.69973 33903 ft 491 kts
2026-05-07 13:59 52.13769 22.71013 33886 ft 491 kts
2026-05-07 13:59 52.20584 22.72055 33895 ft 491 kts
2026-05-07 14:00 52.27348 22.73093 33893 ft 491 kts
2026-05-07 14:00 52.34169 22.74142 33902 ft 492 kts
2026-05-07 14:01 52.40994 22.75197 33901 ft 492 kts
2026-05-07 14:01 52.47820 22.76256 33892 ft 493 kts
2026-05-07 14:02 52.54657 22.77318 33889 ft 493 kts
2026-05-07 14:02 52.61451 22.78378 33896 ft 493 kts
2026-05-07 14:03 52.68289 22.79447 33889 ft 493 kts
2026-05-07 14:03 52.75122 22.80519 33890 ft 493 kts
2026-05-07 14:04 52.81950 22.81594 33891 ft 493 kts
2026-05-07 14:04 52.88783 22.82672 33893 ft 493 kts
2026-05-07 14:05 52.95621 22.83755 33895 ft 494 kts
2026-05-07 14:05 53.02487 22.84845 33898 ft 496 kts
2026-05-07 14:06 53.09334 22.85936 33903 ft 498 kts
2026-05-07 14:06 53.16297 22.87049 33890 ft 500 kts
2026-05-07 14:07 53.23230 22.88162 33900 ft 501 kts
2026-05-07 14:07 53.30127 22.89273 33912 ft 501 kts
2026-05-07 14:08 53.37070 22.90396 33900 ft 501 kts
2026-05-07 14:08 53.43991 22.91517 33902 ft 500 kts
2026-05-07 14:09 53.50920 22.92644 33889 ft 499 kts
2026-05-07 14:09 53.57821 22.93769 33924 ft 497 kts
2026-05-07 14:10 53.64701 22.94895 33903 ft 496 kts
2026-05-07 14:10 53.71522 22.96015 33716 ft 498 kts
2026-05-07 14:10 53.74981 22.96580 33052 ft 500 kts
2026-05-07 14:11 53.78448 22.97151 32428 ft 498 kts
2026-05-07 14:11 53.81904 22.97722 31741 ft 499 kts
2026-05-07 14:11 53.85362 22.98294 31053 ft 499 kts
2026-05-07 14:11 53.88822 22.98867 30345 ft 500 kts
2026-05-07 14:12 53.92293 22.99443 29548 ft 502 kts
2026-05-07 14:12 53.95769 23.00020 28689 ft 502 kts
2026-05-07 14:12 53.99245 23.00599 27866 ft 502 kts
2026-05-07 14:12 54.02728 23.01180 27075 ft 501 kts
2026-05-07 14:13 54.06176 23.01759 26524 ft 495 kts
2026-05-07 14:13 54.09590 23.02332 25883 ft 491 kts
2026-05-07 14:13 54.12975 23.02900 25294 ft 486 kts
2026-05-07 14:13 54.16324 23.03462 24699 ft 482 kts
2026-05-07 14:14 54.19647 23.04019 24131 ft 477 kts
2026-05-07 14:14 54.22935 23.04576 23564 ft 473 kts
2026-05-07 14:14 54.26018 23.05765 22876 ft 476 kts 21°
2026-05-07 14:14 54.28937 23.08797 22282 ft 473 kts 40°
2026-05-07 14:15 54.31147 23.12887 21896 ft 463 kts 54°
2026-05-07 14:15 54.32705 23.17639 21351 ft 455 kts 71°
2026-05-07 14:15 54.33616 23.22791 20817 ft 449 kts 77°
2026-05-07 14:15 54.34383 23.27895 20239 ft 446 kts 78°
2026-05-07 14:16 54.35126 23.33032 19678 ft 443 kts 78°
2026-05-07 14:16 54.35867 23.38141 19109 ft 440 kts 78°
2026-05-07 14:16 54.36618 23.43231 18535 ft 439 kts 78°
2026-05-07 14:16 54.37377 23.48291 17923 ft 437 kts 77°
2026-05-07 14:17 54.38139 23.53321 17313 ft 434 kts 77°
2026-05-07 14:17 54.38896 23.58303 16728 ft 430 kts 77°
2026-05-07 14:17 54.39650 23.63256 16156 ft 426 kts 77°
2026-05-07 14:17 54.40393 23.68156 15613 ft 422 kts 77°
2026-05-07 14:18 54.41126 23.72999 15083 ft 419 kts 77°
2026-05-07 14:18 54.41843 23.77758 14545 ft 415 kts 77°
2026-05-07 14:18 54.42561 23.82541 14014 ft 412 kts 77°
2026-05-07 14:18 54.43272 23.87294 13423 ft 410 kts 77°
2026-05-07 14:19 54.43977 23.92026 12845 ft 407 kts 77°
2026-05-07 14:19 54.44671 23.96688 12305 ft 404 kts 77°
2026-05-07 14:19 54.45361 24.01347 11758 ft 401 kts 77°
2026-05-07 14:19 54.46044 24.05960 11482 ft 391 kts 77°
2026-05-07 14:20 54.46702 24.10415 11316 ft 379 kts 77°
2026-05-07 14:20 54.47339 24.14740 11157 ft 368 kts 77°
2026-05-07 14:20 54.47955 24.18936 10995 ft 357 kts 77°
2026-05-07 14:20 54.48553 24.23024 10818 ft 348 kts 77°
2026-05-07 14:21 54.49140 24.27043 10563 ft 343 kts 77°
2026-05-07 14:21 54.49694 24.30839 10299 ft 339 kts 77°
2026-05-07 14:21 54.50278 24.34851 10040 ft 334 kts 77°
2026-05-07 14:21 54.50837 24.38698 9867 ft 327 kts 77°
2026-05-07 14:22 54.51378 24.42419 9859 ft 314 kts 77°
2026-05-07 14:22 54.51898 24.46014 9721 ft 307 kts 77°
2026-05-07 14:22 54.52410 24.49569 9329 ft 305 kts 77°
2026-05-07 14:22 54.52919 24.53106 8906 ft 304 kts 77°
2026-05-07 14:23 54.53425 24.56637 8496 ft 303 kts 77°
2026-05-07 14:23 54.53930 24.60167 8191 ft 303 kts 77°
2026-05-07 14:23 54.54428 24.63658 7989 ft 299 kts 77°
2026-05-07 14:23 54.54923 24.67131 7718 ft 297 kts 77°
2026-05-07 14:24 54.55413 24.70579 7442 ft 296 kts 77°
2026-05-07 14:24 54.55901 24.74019 7191 ft 294 kts 77°
2026-05-07 14:24 54.56385 24.77434 6942 ft 292 kts 77°
2026-05-07 14:24 54.56866 24.80830 6690 ft 291 kts 77°
2026-05-07 14:25 54.57343 24.84213 6441 ft 288 kts 77°
2026-05-07 14:25 54.57643 24.86351 6246 ft 285 kts 77°
2026-05-07 14:25 54.58203 24.90842 5661 ft 284 kts 88°
2026-05-07 14:25 54.57837 24.94114 5215 ft 277 kts 120°
2026-05-07 14:26 54.56689 24.96687 4958 ft 270 kts 143°
2026-05-07 14:26 54.55678 24.97982 4964 ft 269 kts 151°
2026-05-07 14:26 54.54111 24.99638 4919 ft 266 kts 153°
2026-05-07 14:26 54.52531 25.01256 4831 ft 262 kts 153°
2026-05-07 14:27 54.50973 25.02872 4500 ft 260 kts 153°
2026-05-07 14:27 54.49424 25.04497 3949 ft 263 kts 150°
2026-05-07 14:27 54.48109 25.06687 3442 ft 269 kts 120°
2026-05-07 14:27 54.47386 25.09606 3252 ft 258 kts 113°
2026-05-07 14:28 54.46739 25.12394 3137 ft 245 kts 112°
2026-05-07 14:28 54.46493 25.15257 2747 ft 244 kts 76°
2026-05-07 14:28 54.47321 25.17693 2706 ft 236 kts 36°
2026-05-07 14:28 54.48758 25.18762 2720 ft 217 kts
2026-05-07 14:29 54.50164 25.19424 2689 ft 202 kts 15°
2026-05-07 14:29 54.51412 25.20236 2675 ft 185 kts 19°
2026-05-07 14:29 54.52568 25.21040 2692 ft 179 kts 18°
2026-05-07 14:29 54.53722 25.21842 2492 ft 171 kts 18°
2026-05-07 14:30 54.54791 25.22588 2240 ft 161 kts 17°
2026-05-07 14:30 54.55814 25.23299 2047 ft 157 kts 19°
2026-05-07 14:30 54.56808 25.23989 1818 ft 150 kts 18°
2026-05-07 14:30 54.57765 25.24655 1631 ft 145 kts 18°
2026-05-07 14:31 54.58710 25.25312 1420 ft 149 kts 17°
2026-05-07 14:31 54.59671 25.25977 1241 ft 148 kts 17°
2026-05-07 14:31 54.60655 25.26662 1004 ft 154 kts 18°
2026-05-07 14:31 54.61656 25.27349 812 ft 156 kts 19°
2026-05-07 14:32 54.62652 25.28057 613 ft 152 kts 18°
2026-05-07 14:32 54.63558 25.28639 630 ft 122 kts 15°
2026-05-07 14:32 54.64198 25.29103 642 ft 78 kts 24°
2026-05-07 14:32 54.64418 25.29261 647 ft 0 kts 21°
2026-05-07 14:33 54.64419 25.29261 647 ft 0 kts 21°
2026-05-07 14:33 54.64420 25.29263 647 ft 0 kts 27°
2026-05-07 14:33 54.64431 25.29273 647 ft 3 kts 26°
2026-05-07 14:33 54.64460 25.29263 650 ft 6 kts 313°
2026-05-07 14:34 54.64462 25.29219 649 ft 1 kts 241°
2026-05-07 14:34 54.64446 25.29193 650 ft 5 kts 205°
2026-05-07 14:34 54.64397 25.29171 647 ft 9 kts 175°
2026-05-07 14:34 54.64336 25.29132 646 ft 11 kts 253°
2026-05-07 14:35 54.64332 25.28998 645 ft 11 kts 268°
2026-05-07 14:35 54.64328 25.28859 644 ft 12 kts 266°
2026-05-07 14:35 54.64323 25.28713 643 ft 12 kts 268°
2026-05-07 14:35 54.64320 25.28561 642 ft 13 kts 268°
2026-05-07 14:36 54.64311 25.28473 643 ft 4 kts 232°
2026-05-07 14:36 54.64280 25.28460 640 ft 5 kts 181°
2026-05-07 14:36 54.64262 25.28460 642 ft 0 kts 181°